Date_Time,Julian_Date,Latitude,Longitude,Instrument_Depth,U,V,Speed,Direction
(yyyy-mm-dd hh:mn:ss UTC),(JD),(+ deg. North),(+ deg. East),(m),(cm/s),(cm/s),(cm/s),(deg True)
1981-04-05 01:30:00 UTC,2444699.562500,29.7697,-93.3439,0037,11.42,-72.10,73.0000,171.0000
1981-04-05 02:00:00 UTC,2444699.583333,29.7697,-93.3439,0037,12.16,-68.94,70.0000,170.0000
1981-04-05 02:30:00 UTC,2444699.604167,29.7697,-93.3439,0037,12.50,-70.91,72.0000,170.0000
1981-04-05 03:00:00 UTC,2444699.625000,29.7697,-93.3439,0037,12.85,-72.88,74.0000,170.0000
1981-04-05 03:30:00 UTC,2444699.645833,29.7697,-93.3439,0037,12.33,-69.92,71.0000,170.0000
1981-04-05 04:00:00 UTC,2444699.666667,29.7697,-93.3439,0037,9.74,-69.32,70.0000,172.0000
1981-04-05 04:30:00 UTC,2444699.687500,29.7697,-93.3439,0037,11.26,-71.11,72.0000,171.0000
1981-04-05 05:00:00 UTC,2444699.708333,29.7697,-93.3439,0037,11.81,-66.97,68.0000,170.0000
1981-04-05 05:30:00 UTC,2444699.729167,29.7697,-93.3439,0037,10.01,-63.21,64.0000,171.0000
1981-04-05 06:00:00 UTC,2444699.750000,29.7697,-93.3439,0037,12.47,-58.69,60.0000,168.0000
1981-04-05 06:30:00 UTC,2444699.770833,29.7697,-93.3439,0037,13.20,-49.26,51.0000,165.0000
1981-04-05 07:00:00 UTC,2444699.791667,29.7697,-93.3439,0037,9.32,-34.77,36.0000,165.0000
1981-04-05 07:30:00 UTC,2444699.812500,29.7697,-93.3439,0037,5.25,-16.17,17.0000,162.0000
1981-04-05 08:00:00 UTC,2444699.833333,29.7697,-93.3439,0037,4.49,2.19,5.0000,64.0000
1981-04-05 08:30:00 UTC,2444699.854167,29.7697,-93.3439,0037,1.99,18.90,19.0000,6.0000
1981-04-05 09:00:00 UTC,2444699.875000,29.7697,-93.3439,0037,-0.59,33.99,34.0000,359.0000
1981-04-05 09:30:00 UTC,2444699.895833,29.7697,-93.3439,0037,-2.41,45.94,46.0000,357.0000
1981-04-05 10:00:00 UTC,2444699.916667,29.7697,-93.3439,0037,-3.63,51.87,52.0000,356.0000
1981-04-05 10:30:00 UTC,2444699.937500,29.7697,-93.3439,0037,-3.49,49.88,50.0000,356.0000
1981-04-05 11:00:00 UTC,2444699.958333,29.7697,-93.3439,0037,-0.68,38.99,39.0000,359.0000
1981-04-05 11:30:00 UTC,2444699.979167,29.7697,-93.3439,0037,2.20,20.88,21.0000,6.0000
1981-04-05 12:00:00 UTC,2444700.000000,29.7697,-93.3439,0037,3.00,-7.42,8.0000,158.0000
1981-04-05 12:30:00 UTC,2444700.020833,29.7697,-93.3439,0037,4.29,-40.78,41.0000,174.0000
1981-04-05 13:00:00 UTC,2444700.041667,29.7697,-93.3439,0037,5.58,-63.76,64.0000,175.0000
1981-04-05 13:30:00 UTC,2444700.062500,29.7697,-93.3439,0037,6.19,-70.73,71.0000,175.0000
1981-04-05 14:00:00 UTC,2444700.083333,29.7697,-93.3439,0037,6.01,-68.74,69.0000,175.0000
1981-04-05 14:30:00 UTC,2444700.104167,29.7697,-93.3439,0037,7.11,-67.63,68.0000,174.0000
1981-04-05 15:00:00 UTC,2444700.125000,29.7697,-93.3439,0037,7.11,-67.63,68.0000,174.0000
1981-04-05 15:30:00 UTC,2444700.145833,29.7697,-93.3439,0037,7.11,-67.63,68.0000,174.0000
1981-04-05 16:00:00 UTC,2444700.166667,29.7697,-93.3439,0037,6.48,-61.66,62.0000,174.0000
1981-04-05 16:30:00 UTC,2444700.187500,29.7697,-93.3439,0037,4.62,-52.80,53.0000,175.0000
1981-04-05 17:00:00 UTC,2444700.208333,29.7697,-93.3439,0037,4.01,-45.82,46.0000,175.0000
1981-04-05 17:30:00 UTC,2444700.229167,29.7697,-93.3439,0037,5.12,-41.69,42.0000,173.0000
1981-04-05 18:00:00 UTC,2444700.250000,29.7697,-93.3439,0037,5.01,-35.65,36.0000,172.0000
1981-04-05 18:30:00 UTC,2444700.270833,29.7697,-93.3439,0037,4.38,-27.66,28.0000,171.0000
1981-04-05 19:00:00 UTC,2444700.291667,29.7697,-93.3439,0037,3.13,-17.73,18.0000,170.0000
1981-04-05 19:30:00 UTC,2444700.312500,29.7697,-93.3439,0037,2.72,-5.35,6.0000,153.0000
1981-04-05 20:00:00 UTC,2444700.333333,29.7697,-93.3439,0037,2.63,8.61,9.0000,17.0000
1981-04-05 20:30:00 UTC,2444700.354167,29.7697,-93.3439,0037,2.07,16.87,17.0000,7.0000
1981-04-05 21:00:00 UTC,2444700.375000,29.7697,-93.3439,0037,1.53,21.95,22.0000,4.0000
1981-04-05 21:30:00 UTC,2444700.395833,29.7697,-93.3439,0037,0.47,27.00,27.0000,1.0000
1981-04-05 22:00:00 UTC,2444700.416667,29.7697,-93.3439,0037,-1.01,28.98,29.0000,358.0000
1981-04-05 22:30:00 UTC,2444700.437500,29.7697,-93.3439,0037,-1.60,22.94,23.0000,356.0000
1981-04-05 23:00:00 UTC,2444700.458333,29.7697,-93.3439,0037,-1.34,10.92,11.0000,353.0000
1981-04-05 23:30:00 UTC,2444700.479167,29.7697,-93.3439,0037,-0.21,-1.99,2.0000,186.0000
1981-04-06 00:00:00 UTC,2444700.500000,29.7697,-93.3439,0037,1.05,-14.96,15.0000,176.0000
1981-04-06 00:30:00 UTC,2444700.520833,29.7697,-93.3439,0037,2.09,-29.93,30.0000,176.0000
1981-04-06 01:00:00 UTC,2444700.541667,29.7697,-93.3439,0037,3.35,-47.88,48.0000,176.0000
1981-04-06 01:30:00 UTC,2444700.562500,29.7697,-93.3439,0037,5.49,-62.76,63.0000,175.0000
1981-04-06 02:00:00 UTC,2444700.583333,29.7697,-93.3439,0037,7.32,-69.62,70.0000,174.0000
1981-04-06 02:30:00 UTC,2444700.604167,29.7697,-93.3439,0037,6.19,-70.73,71.0000,175.0000
1981-04-06 03:00:00 UTC,2444700.625000,29.7697,-93.3439,0037,3.72,-70.90,71.0000,177.0000
1981-04-06 03:30:00 UTC,2444700.645833,29.7697,-93.3439,0037,5.09,-72.82,73.0000,176.0000
1981-04-06 04:00:00 UTC,2444700.666667,29.7697,-93.3439,0037,7.84,-74.59,75.0000,174.0000
1981-04-06 04:30:00 UTC,2444700.687500,29.7697,-93.3439,0037,8.90,-72.46,73.0000,173.0000
1981-04-06 05:00:00 UTC,2444700.708333,29.7697,-93.3439,0037,8.29,-67.49,68.0000,173.0000
1981-04-06 05:30:00 UTC,2444700.729167,29.7697,-93.3439,0037,7.43,-60.55,61.0000,173.0000
1981-04-06 06:00:00 UTC,2444700.750000,29.7697,-93.3439,0037,8.29,-52.35,53.0000,171.0000
1981-04-06 06:30:00 UTC,2444700.770833,29.7697,-93.3439,0037,6.57,-41.48,42.0000,171.0000
1981-04-06 07:00:00 UTC,2444700.791667,29.7697,-93.3439,0037,3.41,-27.79,28.0000,173.0000
1981-04-06 07:30:00 UTC,2444700.812500,29.7697,-93.3439,0037,-0.47,-8.99,9.0000,183.0000
1981-04-06 08:00:00 UTC,2444700.833333,29.7697,-93.3439,0037,-1.58,12.90,13.0000,353.0000
1981-04-06 08:30:00 UTC,2444700.854167,29.7697,-93.3439,0037,-0.56,32.00,32.0000,359.0000
1981-04-06 09:00:00 UTC,2444700.875000,29.7697,-93.3439,0037,-0.79,44.99,45.0000,359.0000
1981-04-06 09:30:00 UTC,2444700.895833,29.7697,-93.3439,0037,-0.96,54.99,55.0000,359.0000
1981-04-06 10:00:00 UTC,2444700.916667,29.7697,-93.3439,0037,-3.56,67.91,68.0000,357.0000
1981-04-06 10:30:00 UTC,2444700.937500,29.7697,-93.3439,0037,-5.51,78.81,79.0000,356.0000
1981-04-06 11:00:00 UTC,2444700.958333,29.7697,-93.3439,0037,-5.79,82.80,83.0000,356.0000
1981-04-06 11:30:00 UTC,2444700.979167,29.7697,-93.3439,0037,-5.30,75.81,76.0000,356.0000
1981-04-06 12:00:00 UTC,2444701.000000,29.7697,-93.3439,0037,-2.27,64.96,65.0000,358.0000
1981-04-06 12:30:00 UTC,2444701.020833,29.7697,-93.3439,0037,-0.96,54.99,55.0000,359.0000
1981-04-06 13:00:00 UTC,2444701.041667,29.7697,-93.3439,0037,-0.77,43.99,44.0000,359.0000
1981-04-06 13:30:00 UTC,2444701.062500,29.7697,-93.3439,0037,1.41,26.96,27.0000,3.0000
1981-04-06 14:00:00 UTC,2444701.083333,29.7697,-93.3439,0037,2.87,4.10,5.0000,35.0000
1981-04-06 14:30:00 UTC,2444701.104167,29.7697,-93.3439,0037,3.82,-21.67,22.0000,170.0000
1981-04-06 15:00:00 UTC,2444701.125000,29.7697,-93.3439,0037,4.29,-40.78,41.0000,174.0000
1981-04-06 15:30:00 UTC,2444701.145833,29.7697,-93.3439,0037,3.35,-47.88,48.0000,176.0000
1981-04-06 16:00:00 UTC,2444701.166667,29.7697,-93.3439,0037,2.36,-44.94,45.0000,177.0000
1981-04-06 16:30:00 UTC,2444701.187500,29.7697,-93.3439,0037,2.79,-39.90,40.0000,176.0000
1981-04-06 17:00:00 UTC,2444701.208333,29.7697,-93.3439,0037,2.96,-33.87,34.0000,175.0000
1981-04-06 17:30:00 UTC,2444701.229167,29.7697,-93.3439,0037,2.82,-26.85,27.0000,174.0000
1981-04-06 18:00:00 UTC,2444701.250000,29.7697,-93.3439,0037,2.56,-20.84,21.0000,173.0000
1981-04-06 18:30:00 UTC,2444701.270833,29.7697,-93.3439,0037,2.49,-11.74,12.0000,168.0000
1981-04-06 19:00:00 UTC,2444701.291667,29.7697,-93.3439,0037,2.00,-0.10,2.0000,93.0000
1981-04-06 19:30:00 UTC,2444701.312500,29.7697,-93.3439,0037,1.12,15.96,16.0000,4.0000
1981-04-06 20:00:00 UTC,2444701.333333,29.7697,-93.3439,0037,0.63,35.99,36.0000,1.0000
1981-04-06 20:30:00 UTC,2444701.354167,29.7697,-93.3439,0037,-0.96,54.99,55.0000,359.0000
1981-04-06 21:00:00 UTC,2444701.375000,29.7697,-93.3439,0037,-2.37,67.96,68.0000,358.0000
1981-04-06 21:30:00 UTC,2444701.395833,29.7697,-93.3439,0037,-6.62,75.71,76.0000,355.0000
1981-04-06 22:00:00 UTC,2444701.416667,29.7697,-93.3439,0037,-6.97,79.70,80.0000,355.0000
1981-04-06 22:30:00 UTC,2444701.437500,29.7697,-93.3439,0037,-2.76,78.95,79.0000,358.0000
1981-04-06 23:00:00 UTC,2444701.458333,29.7697,-93.3439,0037,-1.20,68.99,69.0000,359.0000
1981-04-06 23:30:00 UTC,2444701.479167,29.7697,-93.3439,0037,-1.85,52.97,53.0000,358.0000
1981-04-07 00:00:00 UTC,2444701.500000,29.7697,-93.3439,0037,-1.22,34.98,35.0000,358.0000
1981-04-07 00:30:00 UTC,2444701.520833,29.7697,-93.3439,0037,-0.33,19.00,19.0000,359.0000
1981-04-07 01:00:00 UTC,2444701.541667,29.7697,-93.3439,0037,0.87,-0.48,1.0000,119.0000
1981-04-07 01:30:00 UTC,2444701.562500,29.7697,-93.3439,0037,4.22,-26.67,27.0000,171.0000
1981-04-07 02:00:00 UTC,2444701.583333,29.7697,-93.3439,0037,7.98,-50.37,51.0000,171.0000
1981-04-07 02:30:00 UTC,2444701.604167,29.7697,-93.3439,0037,9.05,-64.37,65.0000,172.0000
1981-04-07 03:00:00 UTC,2444701.625000,29.7697,-93.3439,0037,9.88,-70.31,71.0000,172.0000
1981-04-07 03:30:00 UTC,2444701.645833,29.7697,-93.3439,0037,8.65,-70.47,71.0000,173.0000
1981-04-07 04:00:00 UTC,2444701.666667,29.7697,-93.3439,0037,7.21,-68.62,69.0000,174.0000
1981-04-07 04:30:00 UTC,2444701.687500,29.7697,-93.3439,0037,7.21,-68.62,69.0000,174.0000
1981-04-07 05:00:00 UTC,2444701.708333,29.7697,-93.3439,0037,9.32,-66.35,67.0000,172.0000
1981-04-07 05:30:00 UTC,2444701.729167,29.7697,-93.3439,0037,9.70,-61.24,62.0000,171.0000
1981-04-07 06:00:00 UTC,2444701.750000,29.7697,-93.3439,0037,9.72,-55.15,56.0000,170.0000
1981-04-07 06:30:00 UTC,2444701.770833,29.7697,-93.3439,0037,11.25,-48.72,50.0000,167.0000
1981-04-07 07:00:00 UTC,2444701.791667,29.7697,-93.3439,0037,10.75,-37.49,39.0000,164.0000
1981-04-07 07:30:00 UTC,2444701.812500,29.7697,-93.3439,0037,6.74,-16.69,18.0000,158.0000
1981-04-07 08:00:00 UTC,2444701.833333,29.7697,-93.3439,0037,0.00,0.00,0.0000,11.0000
1981-04-07 08:30:00 UTC,2444701.854167,29.7697,-93.3439,0037,-0.00,0.00,0.0000,359.0000
1981-04-07 09:00:00 UTC,2444701.875000,29.7697,-93.3439,0037,-0.00,0.00,0.0000,352.0000
1981-04-07 09:30:00 UTC,2444701.895833,29.7697,-93.3439,0037,-0.00,0.00,0.0000,347.0000
1981-04-07 10:00:00 UTC,2444701.916667,29.7697,-93.3439,0037,-0.00,0.00,0.0000,350.0000
1981-04-07 10:30:00 UTC,2444701.937500,29.7697,-93.3439,0037,-0.00,0.00,0.0000,354.0000
1981-04-07 11:00:00 UTC,2444701.958333,29.7697,-93.3439,0037,-0.00,0.00,0.0000,355.0000
1981-04-07 11:30:00 UTC,2444701.979167,29.7697,-93.3439,0037,-0.00,0.00,0.0000,353.0000
1981-04-07 12:00:00 UTC,2444702.000000,29.7697,-93.3439,0037,-0.00,0.00,0.0000,343.0000
1981-04-07 12:30:00 UTC,2444702.020833,29.7697,-93.3439,0037,-0.00,0.00,0.0000,334.0000
1981-04-07 13:00:00 UTC,2444702.041667,29.7697,-93.3439,0037,-0.00,0.00,0.0000,341.0000
1981-04-07 13:30:00 UTC,2444702.062500,29.7697,-93.3439,0037,-0.00,0.00,0.0000,352.0000
1981-04-07 14:00:00 UTC,2444702.083333,29.7697,-93.3439,0037,-0.00,0.00,0.0000,358.0000
1981-04-07 14:30:00 UTC,2444702.104167,29.7697,-93.3439,0037,-0.00,0.00,0.0000,359.0000
1981-04-07 15:00:00 UTC,2444702.125000,29.7697,-93.3439,0037,-0.00,0.00,0.0000,356.0000
1981-04-07 15:30:00 UTC,2444702.145833,29.7697,-93.3439,0037,-0.00,0.00,0.0000,347.0000
1981-04-07 16:00:00 UTC,2444702.166667,29.7697,-93.3439,0037,-0.00,-0.00,0.0000,211.0000
1981-04-07 16:30:00 UTC,2444702.187500,29.7697,-93.3439,0037,-0.00,-0.00,0.0000,189.0000
1981-04-07 17:00:00 UTC,2444702.208333,29.7697,-93.3439,0037,-0.00,-0.00,0.0000,184.0000
1981-04-07 17:30:00 UTC,2444702.229167,29.7697,-93.3439,0037,-0.00,-0.00,0.0000,181.0000
1981-04-07 18:00:00 UTC,2444702.250000,29.7697,-93.3439,0037,-0.00,-0.00,0.0000,181.0000
1981-04-07 18:30:00 UTC,2444702.270833,29.7697,-93.3439,0037,-0.00,-0.00,0.0000,184.0000
1981-04-07 19:00:00 UTC,2444702.291667,29.7697,-93.3439,0037,-0.00,-0.00,0.0000,260.0000
1981-04-07 19:30:00 UTC,2444702.312500,29.7697,-93.3439,0037,-0.00,0.00,0.0000,354.0000
1981-04-07 20:00:00 UTC,2444702.333333,29.7697,-93.3439,0037,-0.00,0.00,0.0000,359.0000
1981-04-07 20:30:00 UTC,2444702.354167,29.7697,-93.3439,0037,-0.00,0.00,0.0000,359.0000
1981-04-07 21:00:00 UTC,2444702.375000,29.7697,-93.3439,0037,-0.00,0.00,0.0000,359.0000
1981-04-07 21:30:00 UTC,2444702.395833,29.7697,-93.3439,0037,-0.00,0.00,0.0000,358.0000
1981-04-07 22:00:00 UTC,2444702.416667,29.7697,-93.3439,0037,-0.00,0.00,0.0000,357.0000
1981-04-07 22:30:00 UTC,2444702.437500,29.7697,-93.3439,0037,-0.00,0.00,0.0000,358.0000
1981-04-07 23:00:00 UTC,2444702.458333,29.7697,-93.3439,0037,-0.00,0.00,0.0000,358.0000
1981-04-07 23:30:00 UTC,2444702.479167,29.7697,-93.3439,0037,-0.00,0.00,0.0000,356.0000
1981-04-08 00:00:00 UTC,2444702.500000,29.7697,-93.3439,0037,-0.00,0.00,0.0000,357.0000
1981-04-08 00:30:00 UTC,2444702.520833,29.7697,-93.3439,0037,-0.00,0.00,0.0000,359.0000
1981-04-08 01:00:00 UTC,2444702.541667,29.7697,-93.3439,0037,0.00,-0.00,0.0000,165.0000
1981-04-08 01:30:00 UTC,2444702.562500,29.7697,-93.3439,0037,0.00,-0.00,0.0000,173.0000
1981-04-08 02:00:00 UTC,2444702.583333,29.7697,-93.3439,0037,0.00,-0.00,0.0000,173.0000
1981-04-08 02:30:00 UTC,2444702.604167,29.7697,-93.3439,0037,0.00,-0.00,0.0000,173.0000
1981-04-08 03:00:00 UTC,2444702.625000,29.7697,-93.3439,0037,0.00,-0.00,0.0000,173.0000
1981-04-08 03:30:00 UTC,2444702.645833,29.7697,-93.3439,0037,0.00,-0.00,0.0000,173.0000
1981-04-08 04:00:00 UTC,2444702.666667,29.7697,-93.3439,0037,0.00,-0.00,0.0000,174.0000
1981-04-08 04:30:00 UTC,2444702.687500,29.7697,-93.3439,0037,0.00,-0.00,0.0000,173.0000
1981-04-08 05:00:00 UTC,2444702.708333,29.7697,-93.3439,0037,0.00,-0.00,0.0000,172.0000
1981-04-08 05:30:00 UTC,2444702.729167,29.7697,-93.3439,0037,0.00,-0.00,0.0000,173.0000
1981-04-08 06:00:00 UTC,2444702.750000,29.7697,-93.3439,0037,0.00,-0.00,0.0000,173.0000
1981-04-08 06:30:00 UTC,2444702.770833,29.7697,-93.3439,0037,0.00,-0.00,0.0000,171.0000
1981-04-08 07:00:00 UTC,2444702.791667,29.7697,-93.3439,0037,0.00,-0.00,0.0000,170.0000
1981-04-08 07:30:00 UTC,2444702.812500,29.7697,-93.3439,0037,0.00,-0.00,0.0000,169.0000
1981-04-08 08:00:00 UTC,2444702.833333,29.7697,-93.3439,0037,0.00,-0.00,0.0000,167.0000
1981-04-08 08:30:00 UTC,2444702.854167,29.7697,-93.3439,0037,0.00,-0.00,0.0000,161.0000
1981-04-08 09:00:00 UTC,2444702.875000,29.7697,-93.3439,0037,0.00,-0.00,0.0000,142.0000
1981-04-08 09:30:00 UTC,2444702.895833,29.7697,-93.3439,0037,0.00,0.00,0.0000,9.0000
1981-04-08 10:00:00 UTC,2444702.916667,29.7697,-93.3439,0037,-0.00,0.00,0.0000,358.0000
1981-04-08 10:30:00 UTC,2444702.937500,29.7697,-93.3439,0037,-0.00,0.00,0.0000,358.0000
1981-04-08 11:00:00 UTC,2444702.958333,29.7697,-93.3439,0037,-0.00,0.00,0.0000,358.0000
1981-04-08 11:30:00 UTC,2444702.979167,29.7697,-93.3439,0037,-0.00,0.00,0.0000,358.0000
1981-04-08 12:00:00 UTC,2444703.000000,29.7697,-93.3439,0037,-0.00,0.00,0.0000,359.0000
1981-04-08 12:30:00 UTC,2444703.020833,29.7697,-93.3439,0037,-0.00,0.00,0.0000,359.0000
1981-04-08 13:00:00 UTC,2444703.041667,29.7697,-93.3439,0037,-0.00,0.00,0.0000,359.0000
1981-04-08 13:30:00 UTC,2444703.062500,29.7697,-93.3439,0037,-0.00,0.00,0.0000,358.0000
1981-04-08 14:00:00 UTC,2444703.083333,29.7697,-93.3439,0037,-0.00,0.00,0.0000,357.0000
1981-04-08 14:30:00 UTC,2444703.104167,29.7697,-93.3439,0037,-0.00,0.00,0.0000,358.0000
1981-04-08 15:00:00 UTC,2444703.125000,29.7697,-93.3439,0037,-0.00,0.00,0.0000,357.0000
1981-04-08 15:30:00 UTC,2444703.145833,29.7697,-93.3439,0037,-0.00,0.00,0.0000,358.0000
1981-04-08 16:00:00 UTC,2444703.166667,29.7697,-93.3439,0037,-0.00,0.00,0.0000,359.0000
1981-04-08 16:30:00 UTC,2444703.187500,29.7697,-93.3439,0037,-0.00,0.00,0.0000,359.0000
1981-04-08 17:00:00 UTC,2444703.208333,29.7697,-93.3439,0037,0.00,0.00,0.0000,0.0000
1981-04-08 17:30:00 UTC,2444703.229167,29.7697,-93.3439,0037,0.00,0.00,0.0000,3.0000
1981-04-08 18:00:00 UTC,2444703.250000,29.7697,-93.3439,0037,0.00,0.00,0.0000,6.0000
1981-04-08 18:30:00 UTC,2444703.270833,29.7697,-93.3439,0037,0.00,0.00,0.0000,4.0000
1981-04-08 19:00:00 UTC,2444703.291667,29.7697,-93.3439,0037,0.00,0.00,0.0000,4.0000
1981-04-08 19:30:00 UTC,2444703.312500,29.7697,-93.3439,0037,0.00,0.00,0.0000,9.0000
1981-04-08 20:00:00 UTC,2444703.333333,29.7697,-93.3439,0037,0.00,0.00,0.0000,11.0000
1981-04-08 20:30:00 UTC,2444703.354167,29.7697,-93.3439,0037,0.00,0.00,0.0000,5.0000
1981-04-08 21:00:00 UTC,2444703.375000,29.7697,-93.3439,0037,0.00,0.00,0.0000,2.0000
1981-04-08 21:30:00 UTC,2444703.395833,29.7697,-93.3439,0037,0.00,0.00,0.0000,4.0000
1981-04-08 22:00:00 UTC,2444703.416667,29.7697,-93.3439,0037,0.00,0.00,0.0000,5.0000
1981-04-08 22:30:00 UTC,2444703.437500,29.7697,-93.3439,0037,0.00,0.00,0.0000,4.0000
1981-04-08 23:00:00 UTC,2444703.458333,29.7697,-93.3439,0037,0.00,0.00,0.0000,2.0000
1981-04-08 23:30:00 UTC,2444703.479167,29.7697,-93.3439,0037,0.00,0.00,0.0000,0.0000
1981-04-09 00:00:00 UTC,2444703.500000,29.7697,-93.3439,0037,-0.00,0.00,0.0000,356.0000
1981-04-09 00:30:00 UTC,2444703.520833,29.7697,-93.3439,0037,-0.00,-0.00,0.0000,181.0000
1981-04-09 01:00:00 UTC,2444703.541667,29.7697,-93.3439,0037,0.00,-0.00,0.0000,177.0000
1981-04-09 01:30:00 UTC,2444703.562500,29.7697,-93.3439,0037,0.00,-0.00,0.0000,175.0000
1981-04-09 02:00:00 UTC,2444703.583333,29.7697,-93.3439,0037,0.00,-0.00,0.0000,174.0000
1981-04-09 02:30:00 UTC,2444703.604167,29.7697,-93.3439,0037,0.00,-0.00,0.0000,174.0000
1981-04-09 03:00:00 UTC,2444703.625000,29.7697,-93.3439,0037,0.00,-0.00,0.0000,175.0000
1981-04-09 03:30:00 UTC,2444703.645833,29.7697,-93.3439,0037,0.00,-0.00,0.0000,175.0000
1981-04-09 04:00:00 UTC,2444703.666667,29.7697,-93.3439,0037,0.00,-0.00,0.0000,173.0000
1981-04-09 04:30:00 UTC,2444703.687500,29.7697,-93.3439,0037,0.00,-0.00,0.0000,173.0000
1981-04-09 05:00:00 UTC,2444703.708333,29.7697,-93.3439,0037,0.00,-0.00,0.0000,173.0000
1981-04-09 05:30:00 UTC,2444703.729167,29.7697,-93.3439,0037,0.00,-0.00,0.0000,173.0000
1981-04-09 06:00:00 UTC,2444703.750000,29.7697,-93.3439,0037,0.00,-0.00,0.0000,172.0000
1981-04-09 06:30:00 UTC,2444703.770833,29.7697,-93.3439,0037,0.00,-0.00,0.0000,173.0000
1981-04-09 07:00:00 UTC,2444703.791667,29.7697,-93.3439,0037,0.00,-0.00,0.0000,173.0000
1981-04-09 07:30:00 UTC,2444703.812500,29.7697,-93.3439,0037,0.00,-0.00,0.0000,171.0000
1981-04-09 08:00:00 UTC,2444703.833333,29.7697,-93.3439,0037,0.00,-0.00,0.0000,167.0000
1981-04-09 08:30:00 UTC,2444703.854167,29.7697,-93.3439,0037,0.00,-0.00,0.0000,166.0000
1981-04-09 09:00:00 UTC,2444703.875000,29.7697,-93.3439,0037,0.00,-0.00,0.0000,166.0000
1981-04-09 09:30:00 UTC,2444703.895833,29.7697,-93.3439,0037,0.00,-0.00,0.0000,166.0000
1981-04-09 10:00:00 UTC,2444703.916667,29.7697,-93.3439,0037,0.00,-0.00,0.0000,158.0000
1981-04-09 10:30:00 UTC,2444703.937500,29.7697,-93.3439,0037,0.00,0.00,0.0000,13.0000
1981-04-09 11:00:00 UTC,2444703.958333,29.7697,-93.3439,0037,0.00,0.00,0.0000,0.0000
1981-04-09 11:30:00 UTC,2444703.979167,29.7697,-93.3439,0037,-0.00,0.00,0.0000,358.0000
1981-04-09 12:00:00 UTC,2444704.000000,29.7697,-93.3439,0037,-0.00,0.00,0.0000,355.0000
1981-04-09 12:30:00 UTC,2444704.020833,29.7697,-93.3439,0037,-0.00,0.00,0.0000,356.0000
1981-04-09 13:00:00 UTC,2444704.041667,29.7697,-93.3439,0037,-0.00,0.00,0.0000,357.0000
1981-04-09 13:30:00 UTC,2444704.062500,29.7697,-93.3439,0037,-0.00,0.00,0.0000,357.0000
1981-04-09 14:00:00 UTC,2444704.083333,29.7697,-93.3439,0037,-0.00,0.00,0.0000,356.0000
1981-04-09 14:30:00 UTC,2444704.104167,29.7697,-93.3439,0037,-0.00,0.00,0.0000,357.0000
1981-04-09 15:00:00 UTC,2444704.125000,29.7697,-93.3439,0037,-0.00,0.00,0.0000,358.0000
1981-04-09 15:30:00 UTC,2444704.145833,29.7697,-93.3439,0037,-0.00,0.00,0.0000,358.0000
1981-04-09 16:00:00 UTC,2444704.166667,29.7697,-93.3439,0037,-0.00,0.00,0.0000,358.0000
1981-04-09 16:30:00 UTC,2444704.187500,29.7697,-93.3439,0037,-0.00,0.00,0.0000,359.0000
1981-04-09 17:00:00 UTC,2444704.208333,29.7697,-93.3439,0037,-0.00,0.00,0.0000,358.0000
1981-04-09 17:30:00 UTC,2444704.229167,29.7697,-93.3439,0037,-0.00,0.00,0.0000,355.0000
1981-04-09 18:00:00 UTC,2444704.250000,29.7697,-93.3439,0037,-0.00,0.00,0.0000,355.0000
1981-04-09 18:30:00 UTC,2444704.270833,29.7697,-93.3439,0037,-0.00,0.00,0.0000,355.0000
1981-04-09 19:00:00 UTC,2444704.291667,29.7697,-93.3439,0037,-0.00,0.00,0.0000,353.0000
1981-04-09 19:30:00 UTC,2444704.312500,29.7697,-93.3439,0037,-0.00,0.00,0.0000,351.0000
1981-04-09 20:00:00 UTC,2444704.333333,29.7697,-93.3439,0037,-0.00,0.00,0.0000,351.0000
1981-04-09 20:30:00 UTC,2444704.354167,29.7697,-93.3439,0037,0.00,0.00,0.0000,10.0000
1981-04-09 21:00:00 UTC,2444704.375000,29.7697,-93.3439,0037,0.00,-0.00,0.0000,177.0000
1981-04-09 21:30:00 UTC,2444704.395833,29.7697,-93.3439,0037,-0.00,-0.00,0.0000,185.0000
1981-04-09 22:00:00 UTC,2444704.416667,29.7697,-93.3439,0037,-0.00,-0.00,0.0000,194.0000
1981-04-09 22:30:00 UTC,2444704.437500,29.7697,-93.3439,0037,-0.00,-0.00,0.0000,222.0000
1981-04-09 23:00:00 UTC,2444704.458333,29.7697,-93.3439,0037,-0.00,0.00,0.0000,292.0000
1981-04-09 23:30:00 UTC,2444704.479167,29.7697,-93.3439,0037,-0.00,0.00,0.0000,332.0000
1981-04-10 00:00:00 UTC,2444704.500000,29.7697,-93.3439,0037,-0.00,0.00,0.0000,337.0000
1981-04-10 00:30:00 UTC,2444704.520833,29.7697,-93.3439,0037,-0.00,-0.00,0.0000,232.0000
1981-04-10 01:00:00 UTC,2444704.541667,29.7697,-93.3439,0037,-0.00,-0.00,0.0000,184.0000
1981-04-10 01:30:00 UTC,2444704.562500,29.7697,-93.3439,0037,0.00,-0.00,0.0000,176.0000
1981-04-10 02:00:00 UTC,2444704.583333,29.7697,-93.3439,0037,0.00,-0.00,0.0000,174.0000
1981-04-10 02:30:00 UTC,2444704.604167,29.7697,-93.3439,0037,0.00,-0.00,0.0000,171.0000
1981-04-10 03:00:00 UTC,2444704.625000,29.7697,-93.3439,0037,0.00,-0.00,0.0000,172.0000
1981-04-10 03:30:00 UTC,2444704.645833,29.7697,-93.3439,0037,0.00,-0.00,0.0000,174.0000
1981-04-10 04:00:00 UTC,2444704.666667,29.7697,-93.3439,0037,0.00,-0.00,0.0000,174.0000
1981-04-10 04:30:00 UTC,2444704.687500,29.7697,-93.3439,0037,0.00,-0.00,0.0000,173.0000
1981-04-10 05:00:00 UTC,2444704.708333,29.7697,-93.3439,0037,0.00,-0.00,0.0000,172.0000
1981-04-10 05:30:00 UTC,2444704.729167,29.7697,-93.3439,0037,0.00,-0.00,0.0000,171.0000
1981-04-10 06:00:00 UTC,2444704.750000,29.7697,-93.3439,0037,0.00,-0.00,0.0000,170.0000
1981-04-10 06:30:00 UTC,2444704.770833,29.7697,-93.3439,0037,0.00,-0.00,0.0000,171.0000
1981-04-10 07:00:00 UTC,2444704.791667,29.7697,-93.3439,0037,0.00,-0.00,0.0000,172.0000
1981-04-10 07:30:00 UTC,2444704.812500,29.7697,-93.3439,0037,0.00,-0.00,0.0000,172.0000
1981-04-10 08:00:00 UTC,2444704.833333,29.7697,-93.3439,0037,0.00,-0.00,0.0000,172.0000
1981-04-10 08:30:00 UTC,2444704.854167,29.7697,-93.3439,0037,0.00,-0.00,0.0000,171.0000
1981-04-10 09:00:00 UTC,2444704.875000,29.7697,-93.3439,0037,0.00,-0.00,0.0000,169.0000
1981-04-10 09:30:00 UTC,2444704.895833,29.7697,-93.3439,0037,0.00,-0.00,0.0000,168.0000
1981-04-10 10:00:00 UTC,2444704.916667,29.7697,-93.3439,0037,0.00,-0.00,0.0000,167.0000
1981-04-10 10:30:00 UTC,2444704.937500,29.7697,-93.3439,0037,0.00,-0.00,0.0000,166.0000
1981-04-10 11:00:00 UTC,2444704.958333,29.7697,-93.3439,0037,0.00,-0.00,0.0000,166.0000
1981-04-10 11:30:00 UTC,2444704.979167,29.7697,-93.3439,0037,0.00,-0.00,0.0000,163.0000
1981-04-10 12:00:00 UTC,2444705.000000,29.7697,-93.3439,0037,0.00,0.00,0.0000,37.0000
1981-04-10 12:30:00 UTC,2444705.020833,29.7697,-93.3439,0037,0.00,0.00,0.0000,1.0000
1981-04-10 13:00:00 UTC,2444705.041667,29.7697,-93.3439,0037,-0.00,0.00,0.0000,359.0000
1981-04-10 13:30:00 UTC,2444705.062500,29.7697,-93.3439,0037,-0.00,0.00,0.0000,359.0000
1981-04-10 14:00:00 UTC,2444705.083333,29.7697,-93.3439,0037,0.00,0.00,0.0000,0.0000
1981-04-10 14:30:00 UTC,2444705.104167,29.7697,-93.3439,0037,-0.00,0.00,0.0000,359.0000
1981-04-10 15:00:00 UTC,2444705.125000,29.7697,-93.3439,0037,-0.00,0.00,0.0000,358.0000
1981-04-10 15:30:00 UTC,2444705.145833,29.7697,-93.3439,0037,-0.00,0.00,0.0000,358.0000